TimePST,TemperatureF,Dew PointF,Humidity,Sea Level PressureIn,VisibilityMPH,Wind Direction,Wind SpeedMPH,Gust SpeedMPH,PrecipitationIn,Events,Conditions,WindDirDegrees,DateUTC
12:10 AM,55.4,55.4,100,30.18,1.5,ENE,6.9,-,N/A,Rain,Light Rain,70,2012-12-05 08:10:00
12:30 AM,55.4,55.4,100,30.18,1.2,ESE,6.9,-,N/A,Rain,Light Rain,110,2012-12-05 08:30:00
12:50 AM,55.4,55.4,100,30.18,1.2,ESE,10.4,-,N/A,Rain,Light Rain,110,2012-12-05 08:50:00
1:10 AM,55.4,55.4,100,30.18,1.0,SE,10.4,-,N/A,Rain,Light Rain,130,2012-12-05 09:10:00
1:30 AM,55.4,51.8,88,30.18,1.2,SE,13.8,23.0,N/A,Rain,Light Rain,140,2012-12-05 09:30:00
1:50 AM,53.6,53.6,100,30.18,2.0,SE,13.8,18.4,N/A,Rain,Light Rain,130,2012-12-05 09:50:00
2:10 AM,53.6,51.8,94,30.18,1.2,SE,10.4,-,N/A,Rain,Light Rain,130,2012-12-05 10:10:00
2:30 AM,53.6,53.6,100,30.18,1.2,ESE,13.8,-,N/A,Rain,Light Rain,120,2012-12-05 10:30:00
2:50 AM,53.6,51.8,94,30.18,9.0,East,12.7,-,N/A,,Overcast,100,2012-12-05 10:50:00
3:10 AM,53.6,51.8,94,30.17,2.0,ESE,16.1,-,N/A,,Overcast,110,2012-12-05 11:10:00
3:30 AM,53.6,51.8,94,30.17,2.0,ESE,13.8,-,N/A,Rain,Light Rain,110,2012-12-05 11:30:00
3:50 AM,53.6,51.8,94,30.17,1.8,ESE,13.8,18.4,N/A,,Overcast,110,2012-12-05 11:50:00
4:10 AM,53.6,50.0,88,30.16,1.8,ESE,15.0,18.4,N/A,Rain,Light Rain,120,2012-12-05 12:10:00
4:30 AM,53.6,50.0,88,30.17,1.2,ESE,10.4,-,N/A,Rain,Light Rain,110,2012-12-05 12:30:00
4:50 AM,51.8,50.0,94,30.17,1.2,ESE,11.5,-,N/A,Rain,Rain,120,2012-12-05 12:50:00
6:30 AM,53.6,51.8,94,30.17,10.0,SE,8.1,-,N/A,,Overcast,140,2012-12-05 14:30:00
6:50 AM,53.6,53.6,100,30.18,10.0,SE,6.9,-,N/A,,Overcast,140,2012-12-05 14:50:00
7:10 AM,55.4,53.6,94,30.18,10.0,SE,6.9,-,N/A,,Unknown,140,2012-12-05 15:10:00
7:30 AM,55.4,53.6,94,30.19,10.0,SE,4.6,-,N/A,,Overcast,140,2012-12-05 15:30:00
7:50 AM,55.4,53.6,94,30.19,10.0,SSE,6.9,-,N/A,,Overcast,150,2012-12-05 15:50:00
8:10 AM,55.4,53.6,94,30.19,1.0,SSE,6.9,-,N/A,Rain,Light Rain,150,2012-12-05 16:10:00
8:30 AM,55.4,53.6,94,30.19,2.5,SE,6.9,-,N/A,Rain,Light Rain,140,2012-12-05 16:30:00
8:50 AM,55.4,53.6,94,30.20,4.0,SE,4.6,-,N/A,,Overcast,140,2012-12-05 16:50:00
9:10 AM,55.4,53.6,94,30.20,9.0,SE,4.6,-,N/A,,Overcast,130,2012-12-05 17:10:00
9:30 AM,55.4,53.6,94,30.21,10.0,Calm,Calm,-,N/A,,Overcast,0,2012-12-05 17:30:00
9:50 AM,55.4,53.6,94,30.21,10.0,Calm,Calm,-,N/A,,Overcast,0,2012-12-05 17:50:00
10:10 AM,55.4,53.6,94,30.21,7.0,Calm,Calm,-,N/A,,Overcast,0,2012-12-05 18:10:00
10:30 AM,55.4,53.6,94,30.21,5.0,Calm,Calm,-,N/A,,Overcast,0,2012-12-05 18:30:00
10:50 AM,55.4,53.6,94,30.20,1.5,Calm,Calm,-,N/A,,Overcast,0,2012-12-05 18:50:00
11:10 AM,55.4,53.6,94,30.20,0.8,Calm,Calm,-,N/A,,Overcast,0,2012-12-05 19:10:00
11:30 AM,55.4,55.4,100,30.18,0.8,WNW,3.5,-,N/A,,Overcast,300,2012-12-05 19:30:00
11:50 AM,55.4,55.4,100,30.18,1.2,Calm,Calm,-,N/A,,Overcast,0,2012-12-05 19:50:00
12:10 PM,55.4,55.4,100,30.18,0.5,WNW,3.5,-,N/A,Fog,Fog,300,2012-12-05 20:10:00
12:30 PM,55.4,55.4,100,30.17,0.5,NW,3.5,-,N/A,Fog,Fog,310,2012-12-05 20:30:00
12:50 PM,55.4,55.4,100,30.17,0.5,WNW,3.5,-,N/A,Fog,Fog,290,2012-12-05 20:50:00
1:10 PM,55.4,55.4,100,30.16,0.5,NNW,4.6,-,N/A,Fog,Fog,330,2012-12-05 21:10:00
1:30 PM,55.4,55.4,100,30.16,0.8,NNW,4.6,-,N/A,,Overcast,330,2012-12-05 21:30:00
1:50 PM,55.4,55.4,100,30.15,0.8,NW,6.9,-,N/A,,Overcast,310,2012-12-05 21:50:00
2:10 PM,55.4,55.4,100,30.15,1.2,NW,6.9,-,N/A,,Overcast,310,2012-12-05 22:10:00
2:30 PM,55.4,55.4,100,30.14,2.5,NW,5.8,-,N/A,,Overcast,320,2012-12-05 22:30:00
2:50 PM,55.4,55.4,100,30.14,5.0,NW,5.8,-,N/A,,Overcast,320,2012-12-05 22:50:00
3:10 PM,55.4,55.4,100,30.13,5.0,NNW,3.5,-,N/A,,Overcast,340,2012-12-05 23:10:00
3:30 PM,55.4,55.4,100,30.14,4.0,NW,4.6,-,N/A,,Overcast,310,2012-12-05 23:30:00
3:50 PM,55.4,55.4,100,30.14,5.0,NW,6.9,-,N/A,,Overcast,310,2012-12-05 23:50:00
4:10 PM,55.4,55.4,100,30.14,6.0,WNW,6.9,-,N/A,,Overcast,300,2012-12-06 00:10:00
4:30 PM,55.4,53.6,94,30.14,7.0,WNW,6.9,-,N/A,,Overcast,300,2012-12-06 00:30:00
4:50 PM,55.4,53.6,94,30.14,8.0,NW,6.9,-,N/A,,Unknown,310,2012-12-06 00:50:00
5:10 PM,55.4,53.6,94,30.14,10.0,NW,6.9,-,N/A,,Overcast,310,2012-12-06 01:10:00
5:30 PM,55.4,53.6,94,30.14,10.0,NW,6.9,-,N/A,,Overcast,320,2012-12-06 01:30:00
5:50 PM,55.4,53.6,94,30.15,10.0,NW,6.9,-,N/A,,Overcast,320,2012-12-06 01:50:00
6:10 PM,55.4,53.6,94,30.15,5.0,NNW,8.1,-,N/A,,Mist,330,2012-12-06 02:10:00
6:30 PM,55.4,53.6,94,30.15,4.0,NNW,8.1,-,N/A,,Overcast,330,2012-12-06 02:30:00
6:50 PM,55.4,53.6,94,30.15,5.0,NW,6.9,-,N/A,,Overcast,320,2012-12-06 02:50:00
7:10 PM,55.4,53.6,94,30.15,5.0,NW,5.8,-,N/A,,Overcast,320,2012-12-06 03:10:00
7:30 PM,55.4,53.6,94,30.15,5.0,NW,6.9,-,N/A,,Overcast,320,2012-12-06 03:30:00
7:50 PM,55.4,53.6,94,30.16,5.0,NNW,6.9,-,N/A,,Overcast,330,2012-12-06 03:50:00
8:10 PM,55.4,53.6,94,30.16,7.0,North,6.9,-,N/A,,Overcast,350,2012-12-06 04:10:00
8:30 PM,55.4,53.6,94,30.16,7.0,NNW,5.8,-,N/A,,Overcast,340,2012-12-06 04:30:00
8:50 PM,55.4,53.6,94,30.16,8.0,NNW,6.9,-,N/A,,Overcast,330,2012-12-06 04:50:00
9:10 PM,55.4,53.6,94,30.15,7.0,NNW,6.9,-,N/A,,Overcast,340,2012-12-06 05:10:00
9:30 PM,55.4,53.6,94,30.15,7.0,NNW,4.6,-,N/A,,Overcast,340,2012-12-06 05:30:00
9:50 PM,53.6,53.6,100,30.15,7.0,NNW,4.6,-,N/A,,Overcast,330,2012-12-06 05:50:00
10:10 PM,53.6,53.6,100,30.15,7.0,NW,4.6,-,N/A,,Overcast,320,2012-12-06 06:10:00
10:30 PM,53.6,53.6,100,30.15,7.0,NW,3.5,-,N/A,,Overcast,320,2012-12-06 06:30:00
10:50 PM,53.6,53.6,100,30.15,5.0,WNW,3.5,-,N/A,,Overcast,300,2012-12-06 06:50:00
11:10 PM,53.6,53.6,100,30.16,5.0,NW,6.9,-,N/A,,Overcast,320,2012-12-06 07:10:00
11:30 PM,53.6,53.6,100,30.15,5.0,NNW,6.9,-,N/A,,Overcast,330,2012-12-06 07:30:00
11:50 PM,53.6,53.6,100,30.15,4.0,NNW,6.9,-,N/A,,Overcast,330,2012-12-06 07:50:00